Location: *
(55.4667°S, 140.6833°W)
Time: 22:05:39
(UTC+00:00)

Daily predictions for brighter satellites

Satellite Brightness Start Highest point End
(mag) Time Altitude Azimuth Time Altitude Azimuth Time Altitude Azimuth
Cosmos 1980 Rocket 4.4 12:34:19 18° SSE 12:34:19 18° SSE 12:37:31 10° SE
SJ 16-02 4.4 12:43:57 12° E 12:43:57 12° E 12:44:24 10° E
Cosmos 2360 Rocket 4.4 12:59:14 16° S 12:59:14 16° S 13:01:34 10° SSE
Cosmos 2333 Rocket 4.3 13:03:35 18° S 13:03:35 18° S 13:06:48 10° SE
USA 229 DEB 4.0 13:07:54 58° SE 13:07:54 58° SE 13:13:26 10° ENE
USA 229 4.0 13:07:55 57° SE 13:07:55 57° SE 13:13:28 10° ENE
Cosmos 2219 Rocket 4.3 13:09:16 17° S 13:09:16 17° S 13:11:42 10° SSE
NOSS 3-4 (A) 4.4 13:15:13 52° SSW 13:15:17 52° SSW 13:22:37 10° ESE
NOSS 3-4 (C) 4.4 13:15:51 52° SSW 13:15:55 52° SSW 13:23:14 10° ESE
USA 215 3.2 13:16:21 10° E 13:22:47 78° SSE 13:22:47 78° SSE
ATLAS 3B R/B 2.8 13:29:48 56° SSE 13:30:12 57° SSE 13:36:35 10° ENE
Gbstr 26 Del rocket 4.5 13:32:51 42° NE 13:32:51 42° NE 13:37:14 10° ENE
Cosmos 2322 Rocket 4.2 13:33:41 17° S 13:33:48 17° S 13:37:29 10° SE
SL-16 R/B 2.9 13:43:26 45° S 13:43:26 45° S 13:47:34 10° SSE
Cosmos 1697 Rocket 3.8 13:44:21 30° S 13:46:21 40° SE 13:51:42 10° ENE
Cosmos 2237 Rocket 3.7 13:52:28 25° S 13:52:28 25° S 13:55:54 10° SSE
Cosmos 2366 rocket 4.2 13:45:27 10° N 13:51:47 72° E 13:58:07 10° SSE
Cosmos 2221 Rocket 4.5 13:52:16 46° SE 13:52:46 48° ESE 13:57:05 10° NNE
Cosmos 2327 Rocket 4.3 13:54:18 77° NW 13:54:44 83° WSW 14:00:58 10° S
Meteor 2-15 4.5 13:56:21 10° N 14:02:27 78° E 14:08:37 10° SSE
SL-16 R/B 3.6 13:58:51 10° SSE 14:04:56 45° E 14:10:57 10° N
Cosmos 371 Rocket 4.0 14:07:10 42° N 14:07:10 42° N 14:10:23 10° NNE
SL-16 R/B 4.2 14:06:39 16° SSW 14:08:52 19° SSE 14:12:56 10° ESE
Cosmos 1656 3.5 14:09:34 75° WSW 14:09:59 81° WNW 14:15:33 10° NNE
Cosmos 1484 Rocket 4.2 14:07:16 10° NE 14:09:21 31° ENE 14:09:21 31° ENE
SeaSat 1 2.7 14:07:07 10° SSE 14:11:18 54° S 14:11:18 54° S
COSMOS 2428 4.4 14:14:39 19° SSW 14:14:46 19° SSW 14:18:51 10° SSE
Cosmos 1821 Rocket 4.1 14:10:24 10° N 14:16:30 73° E 14:22:44 10° SSE
Cosmos 1727 Rocket 4.1 14:10:38 10° S 14:17:03 82° ESE 14:23:27 10° NNE
Cosmos 1980 Rocket 3.5 14:16:04 20° SSW 14:19:21 35° SE 14:24:32 10° ENE
ISS -1.2 14:19:16 16° NNE 14:19:39 17° NNE 14:21:55 10° ENE
SJ 16-02 1.6 14:20:29 60° NNE 14:20:29 60° NNE 14:24:04 10° NNE
Meteor 2-21 Rocket 4.3 14:13:33 10° SSW 14:19:44 89° E 14:25:51 10° N
Cosmos 1943 3.1 14:20:01 62° WNW 14:20:47 71° SW 14:26:33 10° SSE
Cosmos 962 Rocket 4.5 14:19:12 46° NW 14:20:58 62° WSW 14:27:22 10° S
Cosmos 2285 Rocket 3.9 14:20:35 46° NW 14:22:35 71° WSW 14:29:07 10° SSE
Cosmos 864 Rocket 4.4 14:16:21 10° NNW 14:22:44 77° WSW 14:29:12 10° S
Meteor 2-15 Rocket 4.4 14:19:55 10° N 14:26:03 83° ENE 14:32:15 10° SSE
CBERS-1 4.0 14:25:38 10° NNE 14:30:49 85° ESE 14:35:48 11° SSW
USA 32 4.1 14:27:05 10° N 14:32:21 79° E 14:37:42 10° S
Cosmos 1190 Rocket 3.9 14:30:30 34° SSW 14:32:52 88° ESE 14:38:12 10° NNE
Cosmos 2360 4.2 14:34:21 47° WSW 14:35:50 63° WNW 14:41:29 10° NNE
Meteor 2-16 Rocket 4.3 14:32:06 10° SSW 14:38:21 80° W 14:44:34 10° N
SMAP 3.0 14:35:54 10° NNE 14:40:38 81° WNW 14:43:58 20° SSW
ARIANE 5 R/B 3.1 14:35:49 10° NE 14:40:44 57° ESE 14:45:45 10° S
Cosmos 2360 Rocket 4.2 14:40:58 13° SSW 14:43:55 19° SSE 14:47:54 10° ESE
Cosmos 407 Rocket 3.9 14:45:46 41° WNW 14:45:46 41° WNW 14:50:31 10° N
Cosmos 1954 Rocket 3.9 14:45:40 26° SSW 14:48:50 83° WNW 14:54:11 10° NNE
Cosmos 2333 Rocket 4.0 14:45:36 13° SSW 14:49:21 24° SSE 14:53:57 10° ESE
Cosmos 1603 3.6 14:49:11 18° NW 14:53:32 80° SW 14:59:14 10° SSE
Cosmos 2219 Rocket 4.2 14:50:57 13° SSW 14:53:49 18° S 14:57:39 10° SE
Resurs 1-3 4.4 14:49:58 10° NE 14:54:11 50° ESE 14:58:27 10° S
USA 281 3.3 14:47:53 10° SSE 14:54:34 79° ENE 15:01:12 10° NNW
Cosmos 2084 3.3 14:55:25 40° NW 14:56:52 87° NE 15:01:03 10° SE
Cosmos 1420 Rocket 4.4 14:52:33 10° NNW 14:57:41 64° ENE 15:02:52 10° SSE
USA 229 DEB 3.6 14:55:19 32° WSW 14:58:13 55° NW 15:04:02 10° NNE
USA 229 3.6 14:55:20 32° WSW 14:58:17 56° NW 15:04:06 10° NNE
YAOGAN 1 3.5 14:55:39 10° NE 14:59:48 48° ESE 15:03:59 10° S
CZ-4C R/B 4.5 14:52:25 10° N 15:00:14 38° ENE 15:06:48 10° ESE
SL-8 Rocket 4.3 14:56:34 18° NW 15:00:56 43° WSW 15:06:56 10° S
Meteor 1-28 Rocket 3.3 15:00:01 10° SSE 15:03:21 63° ENE 15:06:39 10° N
Cosmos 1975 Rocket 3.2 14:59:07 10° S 15:03:39 78° ESE 15:08:10 10° NNE
USA 215 3.3 14:59:23 10° ENE 15:06:03 84° NNW 15:10:08 26° WSW
NOSS 3-4 (A) 4.4 15:02:39 23° SW 15:07:42 51° SSE 15:14:31 10° E
NOSS 3-4 (C) 4.4 15:03:17 23° SW 15:08:20 51° SSE 15:15:07 10° E
Cosmos 2341 Rocket 4.4 15:02:42 11° NW 15:08:22 41° WSW 15:14:18 10° S
USA 307 4.1 15:10:48 11° N 15:11:11 12° NNE 15:12:00 10° NE
Cosmos 1315 Rocket 2.6 15:07:41 10° NNW 15:11:33 81° WSW 15:15:29 10° SSE
Cosmos 676 Rocket 4.0 15:08:09 17° SSW 15:12:18 75° WNW 15:17:38 10° NNE
Cosmos 2251 Rocket 3.7 15:10:12 25° SW 15:13:00 48° WNW 15:18:02 10° N
Cosmos 2218 Rocket 4.3 15:07:16 10° NW 15:13:14 42° WSW 15:19:13 10° S
CORIOLIS 4.4 15:08:10 10° N 15:13:23 47° W 15:18:38 10° SSW
ATLAS 2AS CENTAUR R/B 3.1 15:08:33 10° NW 15:15:44 72° NE 15:23:07 10° SE
USA 308 4.2 15:17:50 10° NE 15:17:50 10° NE 15:17:51 10° NE
Landsat 7 4.3 15:13:14 10° NNW 15:17:34 36° W 15:20:02 22° SW
Cosmos 1869 3.0 15:14:56 10° NNW 15:18:23 52° WSW 15:21:55 10° S
UNK 3.9 15:14:46 10° SSE 15:19:30 75° ENE 15:24:08 10° N
Cosmos 2322 Rocket 4.0 15:15:28 10° SSW 15:19:57 24° SSE 15:24:30 10° ESE
ATLAS 3B R/B 2.7 15:17:03 23° WSW 15:20:55 57° NW 15:27:21 10° NNE
Resurs 01 Rocket 2.7 15:16:53 10° NE 15:21:09 45° ESE 15:25:27 10° S
AQUARIUS 4.1 15:17:20 10° N 15:21:46 62° WNW 15:26:15 10° SSW
Cosmos 1300 Rocket 3.4 15:18:02 10° NNW 15:22:24 73° WSW 15:26:48 10° S
ERS-1 4.5 15:20:17 10° NNE 15:25:29 84° WNW 15:30:42 10° SSW
Cosmos 1908 Rocket 3.8 15:22:46 10° NW 15:27:06 46° WSW 15:31:28 10° S
SL-16 R/B 3.5 15:25:19 20° SW 15:27:09 23° SSW 15:31:42 10° SSE
Cosmos 2084 Rocket 3.3 15:28:15 26° WSW 15:30:32 70° NW 15:34:36 10° NE
Cosmos 1697 Rocket 2.8 15:26:05 16° SW 15:30:37 60° WNW 15:36:12 10° NNE
Cosmos 332 Rocket 4.0 15:28:16 17° SW 15:31:50 51° WNW 15:36:34 10° N
Cosmos 1862 3.2 15:30:13 12° SSW 15:33:29 53° W 15:37:05 10° N
Cosmos 2369 4.3 15:30:38 10° SSW 15:36:16 55° SE 15:41:51 10° NE
Cosmos 2237 Rocket 4.0 15:34:16 13° SW 15:37:01 17° S 15:40:42 10° SE
COSMO-SKYMED 1 4.3 15:33:18 10° SSE 15:37:10 34° E 15:40:59 10° NNE
Cosmos 1850 Rocket 4.2 15:32:19 10° SSW 15:37:46 81° ESE 15:43:07 10° NNE
Cosmos 1782 Rocket 3.6 15:37:04 10° NNW 15:41:27 60° WSW 15:45:52 10° S
Cosmos 1484 Rocket 4.1 15:40:58 10° NW 15:42:55 18° WNW 15:42:55 18° WNW
Cosmos 44 4.5 15:43:20 14° SW 15:46:06 25° SSE 15:49:42 10° ESE
Meteor 2-3 Rocket 4.3 15:42:13 10° S 15:48:02 63° ESE 15:53:44 10° NNE
SL-16 R/B 2.8 15:42:32 10° SSE 15:48:35 49° WSW 15:54:36 10° NW
SeaSat 1 3.8 15:44:57 10° SSE 15:48:40 22° SSW 15:50:55 16° WSW
Cosmos 1356 Rocket 3.5 15:44:57 10° NNW 15:48:57 52° WSW 15:53:02 10° S
SKYMED 2 3.7 15:47:28 10° SSE 15:51:57 86° ENE 15:56:22 10° NNW
SPOT 1/Viking Rocket 4.0 15:47:08 10° NNW 15:52:02 39° W 15:57:01 10° SSW
Cosmos 1624 Rocket 4.1 15:48:27 10° NNW 15:53:50 89° SW 15:59:14 10° SSE
Cosmos 2056 Rocket 3.5 15:48:39 10° NNW 15:53:50 87° WSW 15:59:09 10° SSE
Radarsat Rocket 4.3 15:47:25 10° NNE 15:53:56 84° WNW 16:01:25 10° SSW
IRS-1C 4.4 15:49:05 10° N 15:54:15 47° W 15:59:30 10° SSW
SL-16 R/B 3.3 15:49:09 10° SSW 15:54:33 40° SE 15:59:56 10° ENE
ISS -2.4 15:52:35 10° NW 15:55:50 37° NNE 15:59:05 10° E
SJ 16-02 3.1 15:57:01 14° W 15:57:03 14° W 15:59:12 10° WNW
SJ-12 4.4 15:55:10 10° NNW 15:58:40 34° W 16:02:13 10° SSW
Thor Agena Rocket 4.1 15:53:52 10° NNW 15:58:52 40° W 16:03:55 10° SSW
Cosmos 2058 3.4 15:56:08 10° SSW 15:59:54 37° W 16:03:37 10° NNW
CARTOSAT-1 3.5 15:56:44 10° N 16:00:59 67° WNW 16:05:17 10° SSW
SJ-6B 3.4 15:57:52 10° NNE 16:01:30 55° ESE 16:05:13 10° S
Cosmos 1980 Rocket 2.2 15:58:08 10° SW 16:03:47 69° WNW 16:09:23 10° NNE
CZ-2D R/B 3.6 16:01:34 10° NNW 16:04:11 27° W 16:06:35 12° SW
Cosmos 1943 4.3 16:01:49 13° W 16:05:48 26° SSW 16:10:34 10° SSE
Cosmos 968 Rocket 3.8 16:02:19 10° SW 16:07:13 45° WNW 16:12:05 10° N
SPOT 5 3.9 16:03:44 10° NE 16:08:49 51° ESE 16:13:44 10° S
SAR-Lupe-1 4.0 16:07:38 10° NNE 16:11:14 76° WNW 16:14:54 10° SSW
Cosmos 1833 Rocket 2.7 16:08:59 10° NW 16:14:40 76° SW 16:20:25 10° SSE
Cosmos 1536 Rocket 3.5 16:12:20 10° SSW 16:16:49 76° W 16:21:12 10° N
Cosmos 1867 3.7 16:11:35 10° WNW 16:16:57 59° SW 16:22:20 10° SE
Intercosmos 25 Rocket 3.1 16:14:28 10° S 16:17:45 79° ESE 16:21:14 10° NNE
GEOS 3 Rocket 3.9 16:14:36 10° ENE 16:19:36 60° SSE 16:24:36 10° SW
ARIANE 5 R/B 3.4 16:15:45 10° NNW 16:20:06 29° W 16:24:31 10° SSW
CZ-4 R/B 2.9 16:18:11 10° NE 16:21:47 35° ESE 16:25:25 10° S
Cosmos 2360 Rocket 3.3 16:24:10 10° SSW 16:29:31 39° SE 16:34:49 10° ENE
Cosmos 1605 Rocket 4.0 16:23:33 10° NNW 16:29:45 63° WSW 16:35:57 10° S
Cosmos 1934 Rocket 4.5 16:26:30 10° NW 16:32:31 41° WSW 16:38:37 10° S
Cosmos 2333 Rocket 2.8 16:29:05 10° SSW 16:34:51 59° SE 16:40:31 10° NE
SL-19 R/B 4.2 16:29:43 10° N 16:35:11 72° WNW 16:40:32 10° SSW
Cosmos 2084 4.1 16:31:58 10° W 16:35:50 36° SSW 16:39:43 10° SE
YAOGAN 1 3.6 16:32:10 10° NNW 16:35:50 27° W 16:39:34 10° SW
Cosmos 1331 Rocket 4.1 16:31:26 10° NNW 16:36:41 88° ENE 16:42:02 10° SSE
SAR-Lupe-4 4.1 16:33:50 10° N 16:37:16 40° W 16:40:45 10° SSW
USA 307 1.9 16:36:40 10° NW 16:37:58 21° N 16:38:43 10° ENE
USA 281 3.8 16:32:42 10° SSE 16:38:40 37° SW 16:44:37 10° WNW
Cosmos 2219 Rocket 3.4 16:34:21 10° SSW 16:39:31 34° SE 16:44:38 10° ENE
Sich 1 Rocket 4.1 16:35:29 10° N 16:40:02 70° E 16:44:38 10° SSE
NOAA 6 4.4 16:36:13 10° N 16:41:12 47° W 16:46:16 10° SSW
Cosmos 1371 Rocket 4.3 16:36:38 10° NW 16:41:39 47° SW 16:46:43 10° SSE
